Location: Unspecified
(58.9933°N, 5.6375°E)
Time: 11:32:44
(UTC+02:00)

Resurs 1-4 Rocket - Visible Passes

Search period start: 24 October 2014 00:00
Search period end: 02 November 2014 23:00
Orbit: 801 x 814 km, 98.4° (Epoch: 23 October)

Date Brightness Start Highest point End Pass type
(mag) Time Alt. Az. Time Alt. Az. Time Alt. Az.
24 Oct 3.8 04:53:06 10° NNE 04:57:46 30° E 05:02:24 10° SSE visible
24 Oct 2.1 06:32:47 10° NNE 06:38:05 67° WNW 06:43:20 10° SSW visible
25 Oct 4.4 04:29:00 10° NE 04:33:02 21° E 04:37:02 10° SE visible
25 Oct 2.1 06:08:18 10° NNE 06:13:41 89° ESE 06:19:00 10° SSW visible
25 Oct 3.1 07:48:42 10° N 07:53:02 26° NW 07:57:21 10° WSW visible
26 Oct 4.8 03:05:14 10° NE 03:08:13 15° E 03:11:11 10° ESE visible
26 Oct 2.5 04:43:53 10° NNE 04:49:12 63° ESE 04:54:27 10° S visible
26 Oct 2.8 06:24:05 10° N 06:28:51 34° NW 06:33:35 10° WSW visible
27 Oct 3.1 04:19:31 10° NNE 04:24:38 44° E 04:29:41 10° S visible
27 Oct 2.4 05:59:31 10° N 06:04:36 46° WNW 06:09:38 10° SW visible
28 Oct 3.8 03:55:16 10° NNE 04:00:00 31° E 04:04:41 10° SSE visible
28 Oct 2.1 05:34:59 10° NNE 05:40:16 64° WNW 05:45:30 10° SW visible
29 Oct 4.3 03:31:09 10° NE 03:35:16 22° E 03:39:21 10° SE visible
29 Oct 2.0 05:10:30 10° NNE 05:15:52 88° WNW 05:21:11 10° SSW visible
29 Oct 3.2 06:50:55 10° N 06:55:12 25° NW 06:59:27 10° WSW visible
30 Oct 4.7 03:07:20 10° NE 03:10:27 16° E 03:13:33 10° ESE visible
30 Oct 2.4 04:46:04 10° NNE 04:51:24 66° ESE 04:56:39 10° S visible
30 Oct 2.8 06:26:18 10° N 06:31:01 33° NW 06:35:42 10° WSW visible
31 Oct 5.0 02:44:39 10° ENE 02:45:33 10° ENE 02:46:27 10° E visible
31 Oct 3.0 04:21:42 10° NNE 04:26:50 46° E 04:31:55 10° S visible
31 Oct 2.4 06:01:43 10° N 06:06:46 45° WNW 06:11:46 10° SW visible
31 Oct 5.1 17:35:36 10° WSW 17:37:58 13° W 17:40:20 10° NW visible
01 Nov 3.7 03:57:26 10° NNE 04:02:12 32° E 04:06:56 10° SSE visible
01 Nov 2.1 05:37:11 10° NNE 05:42:27 62° WNW 05:47:39 10° SW visible
02 Nov 4.2 03:33:18 10° NE 03:37:29 23° E 03:41:39 10° SE visible
02 Nov 2.0 05:12:42 10° NNE 05:18:03 85° WNW 05:23:21 10° SSW visible
02 Nov 3.2 06:53:08 10° N 06:57:21 25° NW 07:01:32 10° WSW visible
